Theta_e
330 330 330 329 329 328 327 327 327 327 327 327 327 327 327 329 326 309 301 311 314 336 333 313 311 309 309 306 312 309 300 296 298 299 300 299 298 299 301 297 297 300 297 300 308
330 330 330 330 329 329 328 328 328 327 327 327 327 327 327 328 313 306 321 334 335 335 310 308 305 307 302 303 307 303 298 299 303 301 299 300 299 300 298 296 296 298 299 304 306
333 332 331 330 330 330 329 329 328 328 327 327 326 326 327 325 301 303 335 336 336 325 310 308 306 305 300 300 302 303 299 303 304 305 304 301 299 301 297 294 298 298 299 304 303
333 332 331 330 330 330 329 329 329 329 328 327 326 326 327 312 289 304 336 336 337 313 307 304 302 298 297 295 298 298 303 304 305 305 303 300 301 298 297 300 300 300 301 305 303
332 330 330 330 330 329 329 329 329 328 328 326 326 326 313 297 300 309 335 326 308 307 304 302 297 297 294 294 295 295 297 301 302 302 300 299 299 299 298 301 299 301 304 305 305
331 330 330 329 328 328 328 328 328 328 327 326 326 325 305 292 302 307 308 306 307 305 303 301 298 298 295 295 293 295 295 296 297 298 297 295 294 294 296 298 298 301 301 303 305
329 328 327 327 327 327 328 328 328 327 326 325 325 321 302 298 305 304 307 304 305 305 302 302 301 296 297 295 297 295 292 292 292 294 295 295 292 293 295 295 297 298 298 301 304
325 324 324 324 324 326 327 326 325 325 325 324 325 309 297 304 307 306 305 304 306 305 305 303 303 300 297 297 295 290 289 286 290 293 293 292 288 294 293 293 294 295 296 298 301
323 323 323 323 323 325 325 325 324 326 325 325 308 301 297 312 301 304 304 303 304 303 304 307 303 296 296 290 288 289 285 285 291 294 293 292 290 293 293 292 293 292 293 296 298
320 321 321 322 322 323 324 322 322 320 319 320 311 296 298 297 302 303 301 305 301 301 299 300 295 292 290 287 284 285 284 284 285 289 291 289 291 295 295 293 294 292 292 293 296
319 320 320 321 321 322 315 307 303 301 304 298 297 296 298 303 302 299 302 302 300 297 290 292 291 287 289 290 289 287 284 284 287 290 289 289 289 293 296 292 292 292 291 291 295
317 318 318 319 319 320 311 304 303 304 296 304 304 304 307 304 299 298 302 295 294 289 290 289 287 292 293 292 290 288 285 285 288 290 288 288 289 293 294 292 293 295 293 293 291
315 317 317 318 319 315 308 310 313 306 295 299 304 302 302 304 298 297 300 295 291 289 288 286 289 294 293 290 289 286 286 284 286 288 286 285 284 285 288 289 290 292 295 295 295
316 316 316 317 314 312 305 315 316 307 286 290 297 301 300 302 296 300 300 297 291 288 289 288 292 291 289 289 289 284 289 289 288 285 281 285 279 283 284 287 289 289 289 293 293
316 315 315 317 311 308 311 316 312 298 278 293 297 302 298 296 294 296 299 296 290 290 289 287 288 288 288 290 290 288 291 288 287 283 282 282 280 283 284 287 289 290 290 291 293
315 314 314 308 307 311 315 312 301 284 279 291 295 294 293 295 294 297 295 297 295 291 289 290 292 291 291 291 291 291 287 286 286 283 278 280 281 282 285 286 289 290 291 292 292
314 314 311 313 301 312 312 297 284 280 290 288 290 292 291 290 291 292 290 289 288 283 282 286 287 290 292 288 289 288 284 278 277 280 277 282 281 285 289 293 292 293 294 294 291
313 312 307 314 311 311 301 290 278 285 286 293 292 290 288 291 290 290 287 286 288 286 283 281 282 287 290 288 286 284 284 279 276 277 281 284 281 290 293 294 294 294 294 294 293
310 300 301 306 307 308 293 282 283 284 292 291 291 285 285 289 288 287 286 286 288 289 285 281 283 288 289 289 288 284 282 284 281 279 278 281 284 290 290 293 295 294 294 293 294
301 299 298 305 305 301 291 286 286 293 295 292 285 287 283 285 285 284 285 289 290 291 288 285 282 286 288 289 288 287 288 283 281 276 275 277 280 284 290 293 293 294 293 293 293
295 290 298 302 306 296 287 286 291 296 299 293 288 287 286 286 285 284 286 289 291 289 289 286 285 283 285 286 285 286 284 283 283 280 277 276 280 288 291 292 292 291 292 293 294
290 282 295 307 292 291 287 292 298 297 299 297 294 291 288 290 287 285 286 288 293 291 288 288 284 282 285 285 287 285 286 285 281 280 279 278 281 289 293 292 292 292 292 293 294
287 287 295 301 288 286 292 294 296 295 296 296 295 296 296 293 289 290 288 294 295 293 288 288 284 280 283 283 285 284 285 285 284 282 279 277 282 290 290 291 291 292 293 293 294
288 282 288 294 295 289 291 291 292 297 296 296 296 297 294 291 293 291 290 295 296 294 303 295 284 283 281 282 285 282 284 285 285 279 282 284 288 292 294 295 297 296 294 298 295
288 283 287 281 289 289 289 290 289 289 294 294 294 292 291 289 290 288 291 291 295 297 293 288 283 283 285 286 286 286 286 285 283 286 283 284 286 289 291 291 292 295 297 296 297
286 284 286 284 286 284 287 285 286 289 291 290 290 290 291 289 291 287 288 291 291 292 292 292 284 283 283 288 287 285 287 286 285 286 286 286 287 294 296 296 295 294 293 294 295
291 291 289 285 282 281 281 284 287 287 288 293 290 288 287 290 292 291 292 292 292 291 291 292 285 282 280 283 287 285 288 288 289 288 288 286 292 296 294 293 293 294 293 294 297
Wind_Speed
12 13 14 15 16 16 16 17 18 18 18 18 18 17 17 16 17 1 4 6 2 6 4 5 3 6 3 3 3 3 5 1 3 5 5 4 4 2 1 5 3 5 3 2 9
12 13 15 16 16 16 16 17 18 18 18 18 18 18 17 16 3 4 8 3 3 6 5 6 6 6 3 2 2 5 4 6 5 3 4 5 3 7 4 3 4 3 1 5 8
13 14 15 16 16 16 17 17 19 18 18 17 17 18 17 10 4 5 1 1 3 5 1 1 2 1 3 1 1 3 5 4 3 3 3 5 2 7 7 4 8 10 7 9 6
15 14 15 16 16 17 18 18 19 19 18 17 17 16 18 2 1 2 1 1 2 2 3 3 4 4 3 3 2 0 4 3 2 2 2 3 5 4 8 10 3 9 7 11 12
13 16 16 16 17 19 19 19 20 19 17 16 15 14 6 3 8 4 2 2 1 2 2 2 2 1 1 2 4 2 2 2 2 3 3 0 6 7 8 10 3 7 9 15 15
13 15 17 18 18 19 20 20 21 19 16 14 11 10 1 3 2 6 1 2 1 2 3 3 1 2 1 2 1 2 2 5 4 3 3 4 4 2 6 4 7 9 11 11 16
15 17 19 20 20 21 22 21 20 19 16 11 7 1 1 13 2 5 0 0 1 1 1 1 1 2 1 4 4 2 4 6 4 2 5 4 8 11 7 4 8 10 10 9 14
17 19 19 20 23 23 25 22 19 16 7 4 3 1 7 4 4 5 2 2 0 2 2 1 1 2 1 1 7 3 5 4 3 3 1 3 12 10 3 7 11 11 9 10 11
18 19 20 20 22 25 25 22 11 7 5 7 3 2 9 7 2 3 3 2 1 2 5 3 5 3 5 4 5 6 2 2 9 5 1 4 10 5 2 7 9 9 10 10 10
18 18 20 22 22 26 26 16 5 1 1 2 1 3 4 3 3 3 1 1 2 2 5 7 6 3 4 5 3 2 3 3 5 3 3 5 17 16 9 7 10 9 10 10 11
17 17 19 22 22 24 13 6 9 6 7 3 4 4 4 10 4 2 1 3 3 8 1 3 5 4 6 5 2 2 2 4 6 5 3 8 12 19 16 7 11 11 11 12 15
18 18 19 21 21 17 6 7 2 5 10 3 6 7 6 2 4 3 2 3 3 2 1 6 4 4 3 2 2 3 3 7 7 3 3 8 21 21 18 10 12 15 14 16 7
20 19 20 22 22 4 2 5 4 2 3 9 5 4 4 7 4 5 5 3 2 1 3 5 3 2 4 1 1 2 4 4 5 7 3 8 11 7 4 4 6 10 12 10 16
18 19 21 26 5 4 1 7 4 4 4 6 2 3 3 4 3 3 3 4 1 2 4 5 4 3 2 3 5 3 3 3 5 6 4 5 10 9 6 10 7 9 9 13 11
17 17 18 11 4 4 5 9 4 3 5 1 1 2 2 4 1 2 1 2 3 2 4 7 2 1 1 5 5 7 1 1 1 1 4 4 2 13 5 8 8 9 10 11 11
19 19 17 4 2 4 7 7 3 6 6 1 1 1 3 2 3 3 2 3 1 2 2 7 2 3 5 1 1 2 1 5 4 3 3 4 4 10 3 3 9 7 6 10 11
19 22 12 3 3 6 6 3 5 3 4 2 2 1 1 2 2 1 1 2 3 2 4 6 4 3 2 2 2 5 6 5 6 4 7 1 0 14 9 10 7 12 12 8 8
21 19 5 2 6 5 3 5 1 2 4 5 1 2 3 4 2 0 2 2 3 4 1 1 7 3 1 3 5 2 6 6 4 2 6 2 8 9 6 6 9 10 11 9 7
14 5 4 3 6 2 5 3 6 2 3 7 5 1 2 1 1 1 4 4 6 8 8 4 5 1 0 1 1 2 3 3 5 2 3 5 10 12 3 6 11 12 11 11 8
4 4 4 7 5 4 5 4 2 2 4 3 2 1 2 2 1 1 3 3 4 9 2 2 4 1 2 2 2 3 4 4 3 3 5 6 7 8 8 10 11 19 15 12 9
4 5 4 8 2 5 3 5 4 3 6 3 3 4 2 3 2 3 4 3 3 2 0 5 4 4 1 6 8 1 1 4 3 5 5 3 9 7 4 3 5 8 9 9 9
2 4 5 5 5 1 1 3 3 3 4 4 3 3 3 4 3 2 4 3 6 4 5 3 4 4 10 1 2 3 7 6 6 4 2 2 11 3 7 5 5 8 7 6 5
2 3 4 3 1 3 4 5 4 4 4 5 4 4 3 3 5 2 3 3 12 6 2 1 2 2 9 4 3 4 5 4 4 4 8 4 9 2 4 9 7 8 9 8 8
3 4 5 4 2 1 6 4 5 7 1 4 4 6 5 3 2 5 8 5 11 8 9 1 4 6 7 3 3 4 5 6 6 4 7 14 25 19 22 23 28 22 12 18 12
3 1 0 4 3 4 5 4 7 7 5 8 4 10 7 4 6 4 8 9 7 12 10 6 4 3 6 7 4 6 7 6 9 10 13 6 20 8 9 9 11 15 20 18 18
1 1 2 1 3 3 3 2 2 3 5 4 4 9 6 5 5 5 11 4 5 7 7 8 5 6 5 8 9 13 11 11 10 10 13 13 30 17 18 17 17 14 12 15 17
1 1 2 2 2 1 3 3 2 4 2 1 5 7 10 5 5 10 11 12 13 10 5 3 3 6 5 5 12 20 10 18 14 11 10 18 21 18 14 14 12 11 9 12 19
Wind_Direction
357 356 354 352 349 346 342 340 338 335 334 330 328 327 327 327 322 140 260 223 200 349 328 311 19 342 51 73 77 119 65 187 238 161 245 146 167 150 92 123 232 197 164 323 124
345 350 347 343 340 335 332 331 331 330 329 327 326 325 327 333 320 275 248 267 356 7 22 12 343 352 35 43 36 87 118 221 204 211 220 191 175 177 153 153 244 263 121 100 127
342 346 341 336 331 329 326 323 323 325 325 325 325 323 324 326 343 258 166 215 41 44 16 293 325 33 44 357 28 159 178 226 257 219 214 184 218 175 148 223 212 206 178 156 153
340 340 336 330 329 327 323 318 320 321 321 321 323 322 320 262 262 285 194 80 49 62 6 344 10 35 42 355 346 309 238 220 266 241 170 196 127 209 191 223 183 216 155 162 170
336 341 336 333 329 324 320 317 317 316 313 314 318 326 343 9 251 314 335 7 21 48 44 19 53 110 3 319 334 201 280 253 300 261 257 37 240 230 233 241 91 126 149 177 186
346 343 337 331 326 321 317 314 311 306 302 305 310 321 340 277 251 340 351 341 359 53 13 43 119 207 244 256 168 287 282 290 286 248 251 216 256 174 251 225 165 160 192 189 190
349 348 343 333 326 321 315 314 308 302 294 288 292 236 345 238 1 319 336 197 328 110 33 283 129 84 99 327 332 326 323 321 240 236 238 171 295 237 221 152 189 203 205 205 213
356 352 345 339 334 324 319 315 315 313 284 233 210 149 246 260 331 298 153 329 319 93 100 121 117 89 36 309 12 36 44 351 288 143 296 118 273 267 229 170 218 216 214 213 215
354 348 343 339 335 324 320 319 320 359 80 133 112 141 271 311 317 286 181 195 13 80 35 83 63 71 16 62 4 8 261 257 313 203 123 178 272 270 112 183 243 235 229 220 228
354 346 340 336 336 330 323 318 298 16 124 204 312 22 298 328 317 349 353 138 99 63 25 41 48 57 34 68 241 277 327 276 251 282 202 263 264 269 254 210 240 234 229 229 228
353 348 340 333 334 331 338 11 13 352 29 298 299 274 307 299 286 26 64 78 40 52 129 15 56 229 227 202 240 291 247 272 258 282 262 244 266 271 266 219 241 233 227 227 227
351 346 341 332 330 327 353 68 80 241 311 267 252 262 256 263 328 312 94 115 80 217 33 18 229 223 214 188 180 223 304 290 286 280 192 300 279 263 257 234 214 224 223 225 210
351 345 341 330 323 31 24 92 284 151 255 296 226 232 233 146 235 265 131 129 140 181 196 172 242 143 152 212 232 278 229 260 254 317 274 309 293 316 296 251 238 231 227 218 211
346 343 342 330 55 335 14 327 316 185 29 280 295 277 159 158 255 251 190 131 72 234 176 237 284 285 193 225 139 303 207 256 305 25 293 28 288 295 318 300 259 256 227 228 213
341 339 338 341 305 334 312 321 317 66 351 150 200 198 118 145 320 7 341 72 200 193 102 257 296 296 235 224 168 220 65 359 353 60 351 330 62 270 348 323 313 283 248 246 230
336 333 335 332 321 267 314 315 59 39 262 330 12 69 102 24 352 322 72 65 138 180 331 236 283 217 216 77 259 92 126 48 55 82 0 261 142 285 283 241 304 303 299 246 229
332 325 325 297 267 324 322 44 36 162 331 335 293 104 117 260 300 150 128 178 172 81 337 320 243 287 142 127 24 67 51 329 346 8 225 141 295 249 280 282 242 278 286 290 245
330 321 310 255 318 322 20 58 180 287 286 326 29 55 196 156 251 184 85 259 203 97 63 231 327 186 326 193 184 145 158 158 250 272 285 96 240 253 213 298 292 281 275 281 276
340 333 342 293 327 2 74 94 213 215 298 339 314 203 292 314 222 135 216 212 223 172 176 164 275 288 201 71 101 161 191 199 116 26 33 255 292 299 322 342 340 350 356 349 338
345 337 289 327 341 46 78 234 236 277 321 15 295 198 274 315 147 167 209 214 258 194 150 199 297 6 346 112 60 176 162 67 360 232 269 288 277 243 338 348 349 21 10 355 345
36 15 270 328 28 42 158 237 290 273 32 359 324 309 352 2 255 220 233 294 324 25 343 146 138 290 46 200 185 110 256 64 130 150 194 291 269 216 225 270 358 354 10 4 354
36 11 307 335 47 51 170 228 331 333 347 340 5 350 26 6 316 248 258 251 343 148 159 246 156 234 223 123 183 180 205 153 134 242 244 172 271 257 242 281 333 323 332 333 333
34 278 314 26 35 314 313 319 338 330 0 0 327 38 39 344 341 299 314 30 19 10 1 201 263 339 331 15 11 221 199 161 115 99 200 165 262 245 297 287 268 309 327 323 315
35 1 328 40 60 331 9 339 315 342 92 319 284 21 2 336 260 297 350 355 336 353 344 170 187 189 200 223 128 222 209 206 159 154 236 230 270 272 296 309 310 321 310 313 310
36 309 6 336 34 20 29 348 324 340 10 5 95 47 19 314 337 46 6 331 344 8 8 41 282 220 257 265 244 243 242 199 199 225 220 264 247 273 260 278 283 290 299 307 305
85 44 4 305 317 12 351 299 354 350 323 1 21 1 9 3 30 352 355 352 302 342 18 358 298 348 282 285 275 268 249 235 223 243 263 267 268 267 286 276 280 288 287 290 291
253 15 97 314 25 49 237 237 57 27 260 330 30 337 326 331 343 303 272 250 249 272 310 293 322 353 266 333 328 286 224 218 228 211 227 249 271 281 279 266 277 278 276 279 285